Location: Astronomy Club of Akron Observatory
(40.9700°N, 81.5606°W)
Time: 00:21:05
(UTC-04:00)

ISS - Pass Details

Date: 15 July 2018
Orbit: 402 x 408 km, 51.6° (Epoch: 23 July)

Event Time Altitude Azimuth Distance (km) Brightness Sun altitude
Rises 05:09:10 0° 311° (NW) 2,335 -0.1 -9.8°
Reaches altitude 10° 05:11:40 10° 330° (NNW) 1,473 -0.9 -9.4°
Maximum altitude 05:14:08 19° 18° (NNE) 1,040 -0.9 -9.1°
Drops below altitude 10° 05:16:36 10° 67° (ENE) 1,471 0.5 -8.7°
Sets 05:19:06 0° 85° (E) 2,331 1.1 -8.4°
